Location: Devore Heights
(34.2372°N, 117.4156°W)
Time: 08:41:36
(UTC+00:00)

A-11 Canister half - Pass Details

Date: 17 September 2024
Orbit: 1515 x 1684 km, 47.2° (Epoch: 07 October)

Event Time Altitude Azimuth Distance (km) Brightness Sun altitude
Rises 01:50:06 0° 240° (WSW) 4,769 12.7 0.0°
Reaches altitude 10° 01:53:14 10° 242° (WSW) 3,764 12.2 -0.7°
Maximum altitude 02:02:44 74° 327° (NNW) 1,591 9.3 -2.6°
Drops below altitude 10° 02:12:01 10° 53° (NE) 3,680 10.6 -4.6°
Sets 02:15:03 0° 55° (NE) 4,660 11.1 -5.2°
